This is the latest recevied weather packets stored in our database for station/object K9ZOG. If no packets are shown the sender has not sent any weather packets the latest 10 day(s).
| Time | Temp. | Humidity | Pressure | Rain* | Wind** | Luminosity | Snow |
|---|---|---|---|---|---|---|---|
| 1777818853 | 10.56° C | 59% | 1012.2 hPa | 0 mm | - | 313 W/m² | - |
| 1777818552 | 10.56° C | 59% | 1012.2 hPa | 0 mm | - | 327 W/m² | - |
| 1777818255 | 10° C | 61% | 1012.3 hPa | 0 mm | - | 402 W/m² | - |
| 1777817952 | 10° C | 61% | 1012.2 hPa | 0 mm | - | 203 W/m² | - |
| 1777817655 | 10° C | 61% | 1012.4 hPa | 0 mm | - | 197 W/m² | - |
| 1777817353 | 10° C | 61% | 1012.4 hPa | 0 mm | - | 295 W/m² | - |
| 1777817056 | 9.44° C | 61% | 1012.5 hPa | 0 mm | - | 193 W/m² | - |
| 1777816754 | 9.44° C | 61% | 1012.5 hPa | 0 mm | - | 201 W/m² | - |
| 1777816452 | 9.44° C | 61% | 1012.5 hPa | 0 mm | - | 171 W/m² | - |
| 1777816152 | 9.44° C | 61% | 1012.6 hPa | 0 mm | - | 158 W/m² | - |
| 1777815853 | 9.44° C | 62% | 1012.6 hPa | 0 mm | - | 127 W/m² | - |
| 1777815554 | 9.44° C | 62% | 1012.6 hPa | 0 mm | - | 87 W/m² | - |
| 1777815253 | 9.44° C | 61% | 1012.5 hPa | 0 mm | - | 85 W/m² | - |
| 1777814954 | 9.44° C | 63% | 1012.8 hPa | 0 mm | - | 71 W/m² | - |
| 1777814653 | 9.44° C | 62% | 1012.8 hPa | 0 mm | - | 78 W/m² | - |
| 1777814353 | 9.44° C | 62% | 1012.8 hPa | 0 mm | - | 54 W/m² | - |
| 1777814053 | 9.44° C | 62% | 1012.8 hPa | 0 mm | - | 48 W/m² | - |
| 1777813753 | 9.44° C | 61% | 1012.8 hPa | 0 mm | - | 75 W/m² | - |
| 1777813453 | 9.44° C | 60% | 1012.7 hPa | 0 mm | - | 100 W/m² | - |
| 1777813155 | 9.44° C | 60% | 1013 hPa | 0 mm | - | 114 W/m² | - |
| 1777812855 | 9.44° C | 61% | 1013 hPa | 0 mm | - | 142 W/m² | - |
| 1777812552 | 9.44° C | 62% | 1012.8 hPa | 0 mm | - | 98 W/m² | - |
| 1777812255 | 9.44° C | 62% | 1012.8 hPa | 0 mm | - | 91 W/m² | - |
| 1777811953 | 9.44° C | 62% | 1012.8 hPa | 0 mm | - | 78 W/m² | - |
| 1777811655 | 9.44° C | 61% | 1012.9 hPa | 0 mm | - | 65 W/m² | - |
* Rain latest hour (hover to see other rain measurements)
** Current wind speed in m/s (hover to see current wind gust speed)